H1 CPF 2 NER 2025 12 11 9 345 01 glonass146 H2 2216101 9146 54377 2025 12 11 0 0 0 2025 12 14 23 45 0 900 1 1 0 0 0 1 H9 10 0 61020 0.00000 0 -79560.332 17878757.321 -18208052.365 10 0 61020 900.00000 0 -950859.892 19807849.701 -16064137.284 10 0 61020 1800.00000 0 -1567465.861 21535286.645 -13608660.136 10 0 61020 2700.00000 0 -1950389.514 23002937.220 -10889295.943 10 0 61020 3600.00000 0 -2131332.115 24160060.328 -7958811.052 10 0 61020 4500.00000 0 -2151096.159 24965366.691 -4874042.204 10 0 61020 5400.00000 0 -2057613.873 25388704.564 -1694798.248 10 0 61020 6300.00000 0 -1903676.728 25412299.246 1517294.561 10 0 61020 7200.00000 0 -1744462.075 25031494.964 4699981.569 10 0 61020 8100.00000 0 -1634961.403 24254968.358 7791580.310 10 0 61020 9000.00000 0 -1627418.807 23104404.694 10732169.797 10 0 61020 9900.00000 0 -1768887.708 21613650.231 13464745.793 10 0 61020 10800.00000 0 -2099008.959 19827375.802 15936320.130 10 0 61020 11700.00000 0 -2648104.226 17799306.902 18098943.283 10 0 61020 12600.00000 0 -3435665.389 15590093.449 19910630.802 10 0 61020 13500.00000 0 -4469304.342 13264907.193 21336176.161 10 0 61020 14400.00000 0 -5744208.448 10890865.961 22347834.636 10 0 61020 15300.00000 0 -7243125.990 8534391.063 22925865.150 10 0 61020 16200.00000 0 -8936884.022 6258606.931 23058919.619 10 0 61020 17100.00000 0 -10785418.889 4120890.404 22744271.965 10 0 61020 18000.00000 0 -12739278.346 2170671.027 21987881.834 10 0 61020 18900.00000 0 -14741534.368 447573.479 20804290.994 10 0 61020 19800.00000 0 -16730028.431 -1020020.750 19216353.382 10 0 61020 20700.00000 0 -18639856.650 -2215932.564 17254802.940 10 0 61020 21600.00000 0 -20405991.691 -3136625.356 14957666.487 10 0 61020 22500.00000 0 -21965932.007 -3791107.660 12369531.987 10 0 61020 23400.00000 0 -23262267.226 -4200302.631 9540685.659 10 0 61020 24300.00000 0 -24245051.415 -4395911.222 6526134.286 10 0 61020 25200.00000 0 -24873883.651 -4418817.573 3384531.647 10 0 61020 26100.00000 0 -25119607.289 -4317104.779 177030.396 10 0 61020 27000.00000 0 -24965555.317 -4143766.084 -3033917.512 10 0 61020 27900.00000 0 -24408288.400 -3954209.731 -6185787.430 10 0 61020 28800.00000 0 -23457793.825 -3803664.702 -9217210.487 10 0 61020 29700.00000 0 -22137136.617 -3744598.857 -12069178.696 10 0 61020 30600.00000 0 -20481577.530 -3824260.365 -14686202.085 10 0 61020 31500.00000 0 -18537195.350 -4082447.928 -17017394.316 10 0 61020 32400.00000 0 -16359071.967 -4549605.223 -19017465.103 10 0 61020 33300.00000 0 -14009117.037 -5245320.949 -20647599.930 10 0 61020 34200.00000 0 -11553624.014 -6177298.269 -21876210.106 10 0 61020 35100.00000 0 -9060660.250 -7340837.358 -22679539.198 10 0 61020 36000.00000 0 -6597400.295 -8718852.893 -23042114.841 10 0 61020 36900.00000 0 -4227513.429 -10282425.681 -22957038.159 10 0 61020 37800.00000 0 -2008713.617 -11991865.192 -22426106.207 10 0 61020 38700.00000 0 9427.199 -13798238.477 -21459766.032 10 0 61020 39600.00000 0 1787312.890 -15645301.487 -20076902.072 10 0 61020 40500.00000 0 3296729.449 -17471752.209 -18304461.627 10 0 61020 41400.00000 0 4521767.221 -19213711.770 -16176926.068 10 0 61020 42300.00000 0 5459222.658 -20807330.183 -13735638.205 10 0 61020 43200.00000 0 6118464.867 -22191408.368 -11027998.871 10 0 61020 44100.00000 0 6520774.444 -23309927.369 -8106548.085 10 0 61020 45000.00000 0 6698183.949 -24114379.508 -5027948.454 10 0 61020 45900.00000 0 6691870.075 -24565804.484 -1851890.169 10 0 61020 46800.00000 0 6550166.089 -24636445.550 1360061.479 10 0 61020 47700.00000 0 6326278.936 -24310956.745 4545653.980 10 0 61020 48600.00000 0 6075807.566 -23587110.718 7643148.225 10 0 61020 49500.00000 0 5854167.284 -22475977.440 10592508.932 10 0 61020 50400.00000 0 5714028.749 -21001566.022 13336562.150 10 0 61020 51300.00000 0 5702879.589 -19199944.125 15822097.853 10 0 61020 52200.00000 0 5860811.445 -17117870.997 18000896.767 10 0 61020 53100.00000 0 6218625.851 -14811000.319 19830661.943 10 0 61020 54000.00000 0 6796339.089 -12341726.722 21275837.561 10 0 61020 54900.00000 0 7602149.672 -9776764.525 22308299.438 10 0 61020 55800.00000 0 8631912.861 -7184558.291 22907904.103 10 0 61020 56700.00000 0 9869145.709 -4632631.772 23062885.804 10 0 61020 57600.00000 0 11285564.054 -2184984.396 22770093.520 10 0 61020 58500.00000 0 12842130.778 100357.270 22035062.832 10 0 61020 59400.00000 0 14490573.235 2173531.945 20871920.513 10 0 61020 60300.00000 0 16175308.018 3994689.133 19303122.633 10 0 61020 61200.00000 0 17835693.811 5535411.060 17359030.181 10 0 61020 62100.00000 0 19408518.940 6779651.859 15077329.268 10 0 61020 63000.00000 0 20830619.819 7724154.848 12502306.158 10 0 61020 63900.00000 0 22041520.368 8378330.542 9683990.406 10 0 61020 64800.00000 0 22985981.019 8763600.849 6677182.330 10 0 61020 65700.00000 0 23616349.232 8912237.518 3540383.632 10 0 61020 66600.00000 0 23894611.397 8865744.597 334652.388 10 0 61020 67500.00000 0 23794058.413 8672854.231 -2877594.563 10 0 61020 68400.00000 0 23300493.530 8387221.862 -6033807.473 10 0 61020 69300.00000 0 22412930.483 8064919.845 -9072532.610 10 0 61020 70200.00000 0 21143751.764 7761837.168 -11934619.073 10 0 61020 71100.00000 0 19518319.929 7531096.956 -14564378.780 10 0 61020 72000.00000 0 17574058.257 7420602.450 -16910676.098 10 0 61020 72900.00000 0 15359039.591 7470816.459 -18927925.283 10 0 61020 73800.00000 0 12930142.969 7712868.948 -20576976.119 10 0 61020 74700.00000 0 10350855.734 8167073.191 -21825870.697 10 0 61020 75600.00000 0 7688813.417 8841913.210 -22650457.141 10 0 61020 76500.00000 0 5013180.254 9733545.067 -23034849.222 10 0 61020 77400.00000 0 2391979.451 10825832.738 -22971723.843 10 0 61020 78300.00000 0 -110516.159 12090916.709 -22462451.732 10 0 61020 79200.00000 0 -2436225.417 13490291.122 -21517059.730 10 0 61020 80100.00000 0 -4535431.811 14976344.076 -20154026.283 10 0 61020 81000.00000 0 -6368599.377 16494296.431 -18399914.714 10 0 61020 81900.00000 0 -7907757.828 17984457.991 -16288851.801 10 0 61020 82800.00000 0 -9137401.204 19384706.755 -13861861.947 10 0 61020 83700.00000 0 -10054864.606 20633087.758 -11166069.856 10 0 61020 84600.00000 0 -10670165.260 21670423.023 -8253786.994 10 0 61020 85500.00000 0 -11005316.324 22442823.693 -5181499.324 10 0 61021 0.00000 0 -11093143.757 22903999.416 -2008775.954 10 0 61021 900.00000 0 -10975657.145 23017268.682 1202882.220 10 0 61021 1800.00000 0 -10702043.801 22757185.426 4391227.520 10 0 61021 2700.00000 0 -10326371.296 22110714.587 7494467.207 10 0 61021 3600.00000 0 -9905095.315 21077906.439 10452454.703 10 0 61021 4500.00000 0 -9494477.993 19672041.370 13207849.281 10 0 61021 5400.00000 0 -9148025.460 17919238.341 15707221.877 10 0 61021 6300.00000 0 -8914052.426 15857542.500 17902086.106 10 0 61021 7200.00000 0 -8833476.327 13535529.000 19749834.945 10 0 61021 8100.00000 0 -8937933.979 11010479.971 21214565.415 10 0 61021 9000.00000 0 -9248300.263 8346209.209 22267775.697 10 0 61021 9900.00000 0 -9773671.759 5610623.726 22888921.357 10 0 61021 10800.00000 0 -10510858.918 2873122.134 23065819.974 10 0 61021 11700.00000 0 -11444409.355 201936.727 22794896.093 10 0 61021 12600.00000 0 -12547162.713 -2338471.396 22081261.210 10 0 61021 13500.00000 0 -13781315.396 -4689856.771 20938626.511 10 0 61021 14400.00000 0 -15099952.078 -6802372.533 19389049.040 10 0 61021 15300.00000 0 -16448981.087 -8636401.408 17462515.097 10 0 61021 16200.00000 0 -17769393.503 -10163958.577 15196367.835 10 0 61021 17100.00000 0 -18999751.719 -11369607.946 12634589.100 10 0 61021 18000.00000 0 -20078803.012 -12250853.504 9826948.694 10 0 61021 18900.00000 0 -20948107.803 -12817989.556 6828037.106 10 0 61021 19800.00000 0 -21554571.132 -13093416.444 3696200.421 10 0 61021 20700.00000 0 -21852769.497 -13110451.164 492398.522 10 0 61021 21600.00000 0 -21806973.588 -12911683.914 -2720990.479 10 0 61021 22500.00000 0 -21392780.142 -12546951.134 -5881395.268 10 0 61021 23400.00000 0 -20598282.783 -12071012.125 -8927280.668 10 0 61021 24300.00000 0 -19424731.344 -11541029.029 -11799356.080 10 0 61021 25200.00000 0 -17886651.106 -11013958.355 -14441738.298 10 0 61021 26100.00000 0 -16011416.474 -10543965.819 -16803045.055 10 0 61021 27000.00000 0 -13838296.885 -10179974.995 -18837397.405 10 0 61021 27900.00000 0 -11417015.044 -9963454.237 -20505311.220 10 0 61021 28800.00000 0 -8805878.212 -9926535.790 -21774460.586 10 0 61021 29700.00000 0 -6069560.867 -10090546.515 -22620298.803 10 0 61021 30600.00000 0 -3276631.493 -10465011.909 -23026525.766 10 0 61021 31500.00000 0 -496926.477 -11047174.883 -22985393.566 10 0 61021 32400.00000 0 2201119.931 -11822048.882 -22497845.468 10 0 61021 33300.00000 0 4753079.308 -12763002.514 -21573486.518 10 0 61021 34200.00000 0 7100959.223 -13832850.522 -20230387.202 10 0 61021 35100.00000 0 9195360.252 -14985404.884 -18494724.589 10 0 61021 36000.00000 0 10997271.871 -16167420.690 -16400268.331 10 0 61021 36900.00000 0 12479434.239 -17320855.075 -13987721.672 10 0 61021 37800.00000 0 13627211.139 -18385344.502 -11303930.258 10 0 61021 38700.00000 0 14438939.522 -19300796.675 -8400973.909 10 0 61021 39600.00000 0 14925742.855 -20009988.523 -5335158.758 10 0 61021 40500.00000 0 15110817.693 -20461061.509 -2165929.017 10 0 61021 41400.00000 0 15028224.721 -20609809.707 1045280.885 10 0 61021 42300.00000 0 14721236.076 -20421664.693 4236231.784 10 0 61021 43200.00000 0 14240309.113 -19873293.908 7345080.239 10 0 61021 44100.00000 0 13640772.291 -18953745.172 10311571.057 10 0 61021 45000.00000 0 12980320.710 -17665088.889 13078199.075 10 0 61021 45900.00000 0 12316426.678 -16022530.330 15591318.165 10 0 61021 46800.00000 0 11703774.116 -14053986.285 17802176.405 10 0 61021 47700.00000 0 11191824.542 -11799142.590 19667857.834 10 0 61021 48600.00000 0 10822616.851 -9308030.432 21152113.034 10 0 61021 49500.00000 0 10628893.356 -6639179.179 22226062.824 10 0 61021 50400.00000 0 10632631.040 -3857421.031 22868761.680 10 0 61021 51300.00000 0 10844040.165 -1031437.153 23067610.001 10 0 61021 52200.00000 0 11261073.046 1768854.285 22818607.023 10 0 61021 53100.00000 0 11869464.610 4474960.923 22126438.974 10 0 61021 54000.00000 0 12643304.232 7022420.361 21004400.008 10 0 61021 54900.00000 0 13546116.106 9353238.198 19474146.461 10 0 61021 55800.00000 0 14532404.001 11418058.980 17565288.083 10 0 61021 56700.00000 0 15549596.464 13177979.883 15314823.044 10 0 61021 57600.00000 0 16540311.359 14605931.480 12766426.614 10 0 61021 58500.00000 0 17444844.682 15687567.863 9969606.558 10 0 61021 59400.00000 0 18203778.554 16421628.773 6978741.139 10 0 61021 60300.00000 0 18760597.779 16819758.708 3852018.350 10 0 61021 61200.00000 0 19064203.445 16905790.940 650297.354 10 0 61021 62100.00000 0 19071216.113 16714527.229 -2564084.989 10 0 61021 63000.00000 0 18747969.804 16290065.685 -5728538.260 10 0 61021 63900.00000 0 18072111.070 15683748.558 -8781448.161 10 0 61021 64800.00000 0 17033734.317 14951818.121 -11663386.529 10 0 61021 65700.00000 0 15636004.332 14152881.166 -14318276.926 10 0 61021 66600.00000 0 13895239.022 13345290.740 -16694492.096 10 0 61021 67500.00000 0 11840448.362 12584556.951 -18745861.300 10 0 61021 68400.00000 0 9512348.706 11920897.101 -20432567.680 10 0 61021 69300.00000 0 6961893.762 11397029.018 -21721918.320 10 0 61021 70200.00000 0 4248383.792 11046300.726 -22588972.539 10 0 61021 71100.00000 0 1437232.018 10891234.922 -23017017.029 10 0 61021 72000.00000 0 -1402518.674 10942548.859 -22997879.542 10 0 61021 72900.00000 0 -4200825.661 11198689.994 -22532076.112 10 0 61021 73800.00000 0 -6889314.339 11645905.939 -21628789.913 10 0 61021 74700.00000 0 -9403873.693 12258844.785 -20305683.033 10 0 61021 75600.00000 0 -11687072.993 13001659.745 -18588545.469 10 0 61021 76500.00000 0 -13690300.639 13829571.035 -16510788.549 10 0 61021 77400.00000 0 -15375537.761 14690818.928 -14112792.810 10 0 61021 78300.00000 0 -16716694.509 15528925.683 -11441122.995 10 0 61021 79200.00000 0 -17700455.075 16285171.255 -8547625.193 10 0 61021 80100.00000 0 -18326597.858 16901178.777 -5488423.443 10 0 61021 81000.00000 0 -18607778.954 17321501.270 -2322834.938 10 0 61021 81900.00000 0 -18568789.395 17496100.951 887775.448 10 0 61021 82800.00000 0 -18245318.340 17382616.979 4081179.380 10 0 61021 83700.00000 0 -17682274.981 16948326.228 7195485.384 10 0 61021 84600.00000 0 -16931740.132 16171714.507 10170332.350 10 0 61021 85500.00000 0 -16050633.844 15043591.750 12948053.410 10 0 61022 0.00000 0 -15098197.175 13567703.857 15474787.840 10 0 61022 900.00000 0 -14133393.231 11760813.670 17701521.232 10 0 61022 1800.00000 0 -13212337.702 9652248.489 19585030.893 10 0 61022 2700.00000 0 -12385864.776 7282928.897 21088723.178 10 0 61022 3600.00000 0 -11697331.604 4703919.554 22183343.483 10 0 61022 4500.00000 0 -11180752.852 1974559.843 22847546.777 10 0 61022 5400.00000 0 -10859343.731 -839749.598 23068317.466 10 0 61022 6300.00000 0 -10744532.927 -3670014.199 22841230.233 10 0 61022 7200.00000 0 -10835487.400 -6446265.629 22170546.312 10 0 61022 8100.00000 0 -11119169.757 -9100227.289 21069142.608 10 0 61022 9000.00000 0 -11570926.660 -11567915.311 19558274.026 10 0 61022 9900.00000 0 -12155584.513 -13792067.456 17667172.543 10 0 61022 10800.00000 0 -12829007.174 -15724299.116 15432489.647 10 0 61022 11700.00000 0 -13540050.741 -17326896.512 12897591.908 10 0 61022 12600.00000 0 -14232833.352 -18574172.003 10111722.557 10 0 61022 13500.00000 0 -14849224.148 -19453324.628 7129044.850 10 0 61022 14400.00000 0 -15331445.764 -19964769.623 4007585.675 10 0 61022 15300.00000 0 -15624679.444 -20121923.137 808100.307 10 0 61022 16200.00000 0 -15679561.362 -19950451.529 -2407118.911 10 0 61022 17100.00000 0 -15454463.085 -19487017.528 -5575465.774 10 0 61022 18000.00000 0 -14917458.181 -18777577.083 -8635250.191 10 0 61022 18900.00000 0 -14047890.331 -17875300.023 -11526909.724 10 0 61022 19800.00000 0 -12837475.383 -16838203.680 -14194177.893 10 0 61022 20700.00000 0 -11290889.774 -15726600.747 -16585185.452 10 0 61022 21600.00000 0 -9425819.783 -14600470.377 -18653472.593 10 0 61022 22500.00000 0 -7272469.003 -13516864.338 -20358892.077 10 0 61022 23400.00000 0 -4872544.483 -12527458.183 -21668385.864 10 0 61022 24300.00000 0 -2277763.856 -11676350.710 -22556620.631 10 0 61022 25200.00000 0 452054.205 -10998203.988 -23006470.635 10 0 61022 26100.00000 0 3251236.635 -10516801.460 -23009339.490 10 0 61022 27000.00000 0 6050746.392 -10244083.656 -22565315.659 10 0 61022 27900.00000 0 8780813.498 -10179700.765 -21683159.617 10 0 61022 28800.00000 0 11373597.984 -10311099.554 -20380123.805 10 0 61022 29700.00000 0 13765775.033 -10614139.675 -18681609.502 10 0 61022 30600.00000 0 15900936.052 -11054212.371 -16620667.697 10 0 61022 31500.00000 0 17731707.168 -11587813.654 -14237353.850 10 0 61022 32400.00000 0 19221498.494 -12164505.182 -11577949.078 10 0 61022 33300.00000 0 20345812.810 -12729179.956 -8694062.688 10 0 61022 34200.00000 0 21093060.572 -13224537.313 -5641633.278 10 0 61022 35100.00000 0 21464848.670 -13593662.986 -2479847.470 10 0 61022 36000.00000 0 21475732.097 -13782605.666 730003.091 10 0 61022 36900.00000 0 21152440.000 -13742841.604 3925704.557 10 0 61022 37800.00000 0 20532609.378 -13433523.463 7045320.941 10 0 61022 38700.00000 0 19663080.074 -12823418.638 10028388.484 10 0 61022 39600.00000 0 18597822.904 -11892455.130 12817081.512 10 0 61022 40500.00000 0 17395587.888 -10632809.389 15357327.604 10 0 61022 41400.00000 0 16117371.095 -9049489.555 17599850.955 10 0 61022 42300.00000 0 14823806.031 -7160388.413 19501124.132 10 0 61022 43200.00000 0 13572588.518 -4995802.326 21024210.304 10 0 61022 44100.00000 0 12416042.558 -2597434.466 22139480.013 10 0 61022 45000.00000 0 11398928.799 -16922.017 22825188.853 10 0 61022 45900.00000 0 10556587.127 2686053.315 23067904.942 10 0 61022 46800.00000 0 9913491.135 5445994.810 22862777.714 10 0 61022 47700.00000 0 9482275.169 8194069.316 22213642.353 10 0 61022 48600.00000 0 9263275.068 10860733.402 21132957.110 10 0 61022 49500.00000 0 9244602.369 13378399.069 19641573.765 10 0 61022 50400.00000 0 9402749.461 15684028.905 17768344.562 10 0 61022 51300.00000 0 9703700.825 17721552.979 15549572.135 10 0 61022 52200.00000 0 10104504.044 19444006.779 13028311.987 10 0 61022 53100.00000 0 10555234.624 20815300.623 10253540.297 10 0 61022 54000.00000 0 11001271.579 21811546.177 7279202.656 10 0 61022 54900.00000 0 11385787.213 22421884.088 4163162.102 10 0 61022 55800.00000 0 11652344.950 22648777.717 966067.233 10 0 61022 56700.00000 0 11747494.073 22507760.586 -2249836.908 10 0 61022 57600.00000 0 11623250.140 22026648.491 -5421931.014 10 0 61022 58500.00000 0 11239354.439 21244250.062 -8488451.727 10 0 61022 59400.00000 0 10565215.351 20208631.119 -11389704.635 10 0 61022 60300.00000 0 9581447.996 18975007.151 -14069235.241 10 0 61022 61200.00000 0 8280945.918 17603354.086 -16474934.063 10 0 61022 62100.00000 0 6669438.580 16155839.281 -18560053.691 10 0 61022 63000.00000 0 4765510.488 14694181.963 -20284117.727 10 0 61022 63900.00000 0 2600080.662 13277054.956 -21613704.001 10 0 61022 64800.00000 0 215364.019 11957637.186 -22523087.335 10 0 61022 65700.00000 0 -2336642.073 10781419.631 -22994730.127 10 0 61022 66600.00000 0 -4996082.967 9784356.130 -23019612.189 10 0 61022 67500.00000 0 -7697503.587 8991435.578 -22597394.461 10 0 61022 68400.00000 0 -10372343.351 8415733.971 -21736414.434 10 0 61022 69300.00000 0 -12951565.861 8057984.509 -20453514.230 10 0 61022 70200.00000 0 -15368314.783 7906682.137 -18773705.346 10 0 61022 71100.00000 0 -17560486.426 7938716.612 -16729677.002 10 0 61022 72000.00000 0 -19473113.107 8120506.143 -14361157.826 10 0 61022 72900.00000 0 -21060459.344 8409582.859 -11714143.300 10 0 61022 73800.00000 0 -22287744.865 8756562.631 -8840003.760 10 0 61022 74700.00000 0 -23132423.823 9107415.765 -5794490.056 10 0 61022 75600.00000 0 -23584968.063 9405942.669 -2636655.851 10 0 61022 76500.00000 0 -23649122.816 9596350.014 572282.867 10 0 61022 77400.00000 0 -23341625.028 9625818.796 3770129.224 10 0 61022 78300.00000 0 -22691396.892 9446956.017 6894905.239 10 0 61022 79200.00000 0 -21738248.838 9020026.586 9886047.056 10 0 61022 80100.00000 0 -20531146.621 8314871.181 12685572.748 10 0 61022 81000.00000 0 -19126115.147 7312428.900 15239200.514 10 0 61022 81900.00000 0 -17583866.643 6005799.911 17497396.031 10 0 61022 82800.00000 0 -15967252.152 4400802.438 19416329.155 10 0 61022 83700.00000 0 -14338642.530 2515999.315 20958721.888 10 0 61022 84600.00000 0 -12757347.910 382191.286 22094571.647 10 0 61022 85500.00000 0 -11277183.047 -1958603.691 22801736.022 10 0 61023 0.00000 0 -9944279.905 -4454644.418 23066367.833 10 0 61023 900.00000 0 -8795237.918 -7046374.879 22883191.908 10 0 61023 1800.00000 0 -7855690.829 -9668666.283 22255617.520 10 0 61023 2700.00000 0 -7139347.696 -12253305.566 21195684.053 10 0 61023 3600.00000 0 -6647550.187 -14731624.927 19723839.538 10 0 61023 4500.00000 0 -6369364.272 -17037165.164 17868555.481 10 0 61023 5400.00000 0 -6282202.888 -19108262.186 15665784.270 10 0 61023 6300.00000 0 -6352953.645 -20890448.918 13158268.613 10 0 61023 7200.00000 0 -6539564.181 -22338571.989 10394715.594 10 0 61023 8100.00000 0 -6793018.136 -23418534.177 7428850.847 10 0 61023 9000.00000 0 -7059617.839 -24108588.970 4318371.060 10 0 61023 9900.00000 0 -7283476.322 -24400132.347 1123815.484 10 0 61023 10800.00000 0 -7409112.110 -24297958.076 -2092620.932 10 0 61023 11700.00000 0 -7384035.442 -23819965.704 -5268308.683 10 0 61023 12600.00000 0 -7161214.851 -22996333.742 -8341414.137 10 0 61023 13500.00000 0 -6701318.000 -21868193.456 -11252113.951 10 0 61023 14400.00000 0 -5974630.407 -20485860.034 -13943768.661 10 0 61023 15300.00000 0 -4962569.527 -18906696.716 -16364031.524 10 0 61023 16200.00000 0 -3658729.156 -17192702.930 -18465870.349 10 0 61023 17100.00000 0 -2069409.230 -15407928.951 -20208482.134 10 0 61023 18000.00000 0 -213608.135 -13615826.502 -21558082.780 10 0 61023 18900.00000 0 1877522.539 -11876646.959 -22488557.025 10 0 61023 19800.00000 0 4161738.213 -10244996.216 -22981956.697 10 0 61023 20700.00000 0 6587232.303 -8767648.157 -23028838.600 10 0 61023 21600.00000 0 9094574.252 -7481707.287 -22628436.456 10 0 61023 22500.00000 0 11618974.082 -6413196.053 -21788664.618 10 0 61023 23400.00000 0 14092779.495 -5576124.290 -20525954.307 10 0 61023 24300.00000 0 16448102.167 -4972077.949 -18864926.240 10 0 61023 25200.00000 0 18619464.655 -4590342.440 -16837906.444 10 0 61023 26100.00000 0 20546358.585 -4408553.731 -14484294.864 10 0 61023 27000.00000 0 22175608.563 -4393848.283 -11849799.057 10 0 61023 27900.00000 0 23463444.385 -4504462.304 -8985547.658 10 0 61023 28800.00000 0 24377196.082 -4691712.065 -5947100.645 10 0 61023 29700.00000 0 24896542.117 -4902271.280 -2793375.275 10 0 61023 30600.00000 0 25014259.443 -5080649.203 414491.796 10 0 61023 31500.00000 0 24736444.834 -5171764.740 3614324.405 10 0 61023 32400.00000 0 24082198.841 -5123507.967 6744106.276 10 0 61023 33300.00000 0 23082785.956 -4889180.959 9743176.954 10 0 61023 34200.00000 0 21780306.344 -4429714.867 12553401.473 10 0 61023 35100.00000 0 20225934.665 -3715569.570 15120291.477 10 0 61023 36000.00000 0 18477799.407 -2728235.360 17394056.545 10 0 61023 36900.00000 0 16598590.989 -1461272.700 19330565.786 10 0 61023 37800.00000 0 14652997.978 79154.777 20892201.577 10 0 61023 38700.00000 0 12705077.819 1874277.927 22048589.309 10 0 61023 39600.00000 0 10815671.164 3893252.261 22777189.249 10 0 61023 40500.00000 0 9039966.976 6094200.514 23063739.184 10 0 61023 41400.00000 0 7425319.466 8425726.202 22902539.076 10 0 61023 42300.00000 0 6009407.519 10828837.101 22296571.785 10 0 61023 43200.00000 0 4818813.198 13239200.386 21257456.828 10 0 61023 44100.00000 0 3868078.605 15589637.057 19805237.094 10 0 61023 45000.00000 0 3159280.603 17812752.838 17968001.593 10 0 61023 45900.00000 0 2682141.275 19843596.541 15781350.391 10 0 61023 46800.00000 0 2414669.549 21622235.177 13287711.051 10 0 61023 47700.00000 0 2324306.971 23096137.918 10535518.984 10 0 61023 48600.00000 0 2369529.122 24222268.624 7578277.094 10 0 61023 49500.00000 0 2501834.581 24968798.417 4473512.800 10 0 61023 50400.00000 0 2668036.601 25316365.596 1281653.001 10 0 61023 51300.00000 0 2812759.427 25258829.206 -1935160.474 10 0 61023 52200.00000 0 2881032.171 24803484.031 -5114290.915 10 0 61023 53100.00000 0 2820868.834 23970727.765 -8193837.254 10 0 61023 54000.00000 0 2585723.528 22793194.560 -11113849.857 10 0 61023 54900.00000 0 2136715.371 21314391.914 -13817506.672 10 0 61023 55800.00000 0 1444527.428 19586899.095 -16252225.779 10 0 61023 56700.00000 0 490898.267 17670203.774 -18370691.990 10 0 61023 57600.00000 0 -730357.834 15628268.765 -20131777.193 10 0 61023 58500.00000 0 -2212845.626 13526931.760 -21501336.588 10 0 61023 59400.00000 0 -3937620.320 11431247.630 -22452865.781 10 0 61023 60300.00000 0 -5873754.624 9402884.660 -22968006.719 10 0 61023 61200.00000 0 -7979417.766 7497683.304 -23036893.572 10 0 61023 62100.00000 0 -10203421.504 5763478.683 -22658332.889 10 0 61023 63000.00000 0 -12487168.728 4238276.485 -21839815.533 10 0 61023 63900.00000 0 -14766923.569 2948856.857 -20597361.052 10 0 61023 64800.00000 0 -16976308.796 1909862.725 -18955198.193 10 0 61023 65700.00000 0 -19048926.952 1123408.608 -16945288.196 10 0 61023 66600.00000 0 -20920996.626 579224.352 -14606700.394 10 0 61023 67500.00000 0 -22533894.740 255325.855 -11984852.213 10 0 61023 68400.00000 0 -23836499.614 119183.036 -9130628.201 10 0 61023 69300.00000 0 -24787237.856 129334.649 -6099394.945 10 0 61023 70200.00000 0 -25355750.335 237381.015 -2949930.713 10 0 61023 71100.00000 0 -25524108.340 390270.064 256709.794 10 0 61023 72000.00000 0 -25287529.608 532779.915 3458373.789 10 0 61023 72900.00000 0 -24654564.693 610093.095 6593009.362 10 0 61023 73800.00000 0 -23646746.106 570353.710 9599862.131 10 0 61023 74700.00000 0 -22297714.930 367099.644 12420646.714 10 0 61023 75600.00000 0 -20651861.265 -38532.903 15000670.737 10 0 61023 76500.00000 0 -18762534.945 -675925.734 17289890.056 10 0 61023 77400.00000 0 -16689900.720 -1563495.679 19243875.186 10 0 61023 78300.00000 0 -14498526.702 -2707675.533 20824670.733 10 0 61023 79200.00000 0 -12254805.839 -4102402.929 22001531.556 10 0 61023 80100.00000 0 -10024317.037 -5729140.104 22751521.714 10 0 61023 81000.00000 0 -7869235.032 -7557425.555 23059964.663 10 0 61023 81900.00000 0 -5845896.090 -9545936.521 22920735.867 10 0 61023 82800.00000 0 -4002620.343 -11644019.957 22336391.678 10 0 61023 83700.00000 0 -2377881.019 -13793630.014 21318131.341 10 0 61023 84600.00000 0 -998896.596 -15931592.926 19885591.878 10 0 61023 85500.00000 0 119295.452 -17992106.057 18066478.765 99